Surface/Precipitation History
02/21/2018 13:23  to  2/22/2018 13:23
Change End Date:
Date/Time
(MST)
Sf
Temp Chem Water Layer Surface Precipitation
Sfc Pvt Sub Frz Factor Pct Dpth DpthThk IcePct Cond Salin FI Type Intens Accum Rate
02/22/2018 12:55 Wet 35.8F - - 32F 5 0% 0.00 in - 0% 2 mhos 0 - None None - -
02/22/2018 12:51 Wet 35.6F - - 32F 5 0% 0.00 in - 0% 2 mhos 0 - None None - -
02/22/2018 12:41 Ice Warning 31.6F - - 32F 65 0% - - 100% 3 mhos 0 - None None - -
02/22/2018 12:41 Ice Warning 31.6F - - 32F 65 0% - - 100% 3 mhos 0 - None None - -
02/22/2018 12:31 Ice Warning 30.9F - - 32F 95 0% - - 100% 2 mhos 0 - None None - -
02/22/2018 12:26 Ice Warning 30.9F - - 32F 95 0% - - 100% 2 mhos 0 - None None - -
02/22/2018 12:21 Ice Warning 31.1F - - 32F 95 0% - - 100% 2 mhos 0 - None None - -
02/22/2018 12:11 Ice Warning 30.2F - - 32F 95 0% - - 100% 2 mhos 0 - None None - -
02/22/2018 12:10 Ice Warning 30.2F - - 32F 95 0% - - 100% 2 mhos 0 - None None - -
02/22/2018 12:01 Ice Warning 30.0F - - 32F 95 0% - - 100% 2 mhos 0 - None None - -
02/22/2018 11:55 Ice Warning 30.4F - - 32F 95 0% - - 100% 1 mhos 0 - None None - -
02/22/2018 11:51 Ice Warning 30.4F - - 32F 95 0% - - 100% 1 mhos 0 - None None - -
02/22/2018 11:41 Ice Warning 29.7F - - 32F 5 0% - - 100% 2 mhos 0 - None None - -
02/22/2018 11:40 Ice Warning 29.8F - - 32F 5 0% - - 100% 2 mhos 0 - None None - -
02/22/2018 11:31 Ice Warning 28.2F - - 32F 5 0% - - 100% 2 mhos 0 - None None - -
Date/Time
(MST)
Sf
Temp Chem Water Layer Surface Precipitation
Sfc Pvt Sub Frz Factor Pct Dpth DpthThk IcePct Cond Salin FI Type Intens Accum Rate
02/22/2018 11:26 Ice Warning 28.2F - - 32F 5 0% - - 100% 2 mhos 0 - None None - -
02/22/2018 11:21 Ice Warning 28.0F - - 32F 5 0% - - 100% 2 mhos 0 - None None - -
02/22/2018 11:11 Ice Warning 26.8F - - 32F 5 0% - - 100% 2 mhos 0 - None None - -
02/22/2018 11:11 Ice Warning 26.8F - - 32F 5 0% - - 100% 2 mhos 0 - None None - -
02/22/2018 11:01 Ice Warning 25.3F - - 32F 5 0% - - 100% 2 mhos 0 - None None - -
02/22/2018 10:55 Ice Warning 23.9F - - 32F 5 0% - - 100% 2 mhos 0 - None None - -
02/22/2018 10:51 Ice Warning 23.0F - - 32F 5 0% - - 100% 2 mhos 0 - None None - -
02/22/2018 10:41 Ice Warning 20.7F - - 32F 65 0% - - 100% 2 mhos 0 - None None - -
02/22/2018 10:40 Ice Warning 20.7F - - 32F 65 0% - - 100% 2 mhos 0 - None None - -
02/22/2018 10:31 Ice Warning 19.2F - - 32F 35 0% - - 100% 2 mhos 0 - None None - -
02/22/2018 10:25 Ice Warning 18.7F - - 32F 70 0% - - 100% 1 mhos 0 - None None - -
02/22/2018 10:20 Ice Warning 18.1F - - 32F 35 0% - - 100% 1 mhos 0 - None None - -
02/22/2018 10:10 Ice Warning 17.6F - - 32F 5 0% - - 100% 1 mhos 0 - None None - -
02/22/2018 10:10 Ice Warning 17.6F - - 32F 5 0% - - 100% 1 mhos 0 - None None - -
02/22/2018 10:00 Ice Warning 16.2F - - 32F 5 0% - - 100% 1 mhos 0 - None None - -
Date/Time
(MST)
Sf
Temp Chem Water Layer Surface Precipitation
Sfc Pvt Sub Frz Factor Pct Dpth DpthThk IcePct Cond Salin FI Type Intens Accum Rate
02/22/2018 09:55 Ice Warning 16.2F - - 32F 5 0% - - 100% 1 mhos 0 - None None - -
02/22/2018 09:50 Ice Warning 15.4F - - 32F 10 0% - - 100% 1 mhos 0 - None None - -
02/22/2018 09:40 Ice Warning 13.6F - - 32F 5 0% - - 100% 1 mhos 0 - None None - -
02/22/2018 09:40 Ice Warning 13.6F - - 32F 5 0% - - 100% 1 mhos 0 - None None - -
02/22/2018 09:30 Ice Warning 12.0F - - 32F 5 0% - - 100% 1 mhos 0 - None None - -
02/22/2018 09:25 Ice Warning 10.9F - - 32F 10 0% - - 100% 1 mhos 0 - None None - -
02/22/2018 09:20 Ice Warning 9.0F - - 32F 15 0% - - 100% 1 mhos 0 - None None - -
02/22/2018 09:10 Ice Warning 8.8F - - 32F 25 0% - - 100% 1 mhos 0 - None None - -
02/22/2018 09:10 Ice Warning 8.8F - - 32F 25 0% - - 100% 1 mhos 0 - None None - -
02/22/2018 09:00 Ice Warning 8.4F - - 32F 35 0% - - 100% 1 mhos 0 - None None - -
02/22/2018 08:55 Ice Warning 8.2F - - 32F 40 0% - - 100% 1 mhos 0 - None None - -
02/22/2018 08:50 Ice Warning 8.2F - - 32F 45 0% - - 100% 1 mhos 0 - None None - -
02/22/2018 08:40 Ice Warning 8.1F - - 32F 55 0% - - 100% 1 mhos 0 - None None - -
02/22/2018 08:40 Ice Warning 8.1F - - 32F 55 0% - - 100% 1 mhos 0 - None None - -
02/22/2018 08:30 Ice Warning 7.7F - - 32F 35 0% - - 100% 1 mhos 0 - None None - -
Date/Time
(MST)
Sf
Temp Chem Water Layer Surface Precipitation
Sfc Pvt Sub Frz Factor Pct Dpth DpthThk IcePct Cond Salin FI Type Intens Accum Rate
02/22/2018 08:25 Ice Warning 7.3F - - 32F 35 0% - - 100% 1 mhos 0 - None None - -
02/22/2018 08:20 Ice Warning 6.8F - - 32F 45 0% - - 100% 1 mhos 0 - None None - -
02/22/2018 08:10 Ice Warning 6.3F - - 32F 50 0% - - 100% 1 mhos 0 - None None - -
02/22/2018 08:10 Ice Warning 6.3F - - 32F 50 0% - - 100% 1 mhos 0 - None None - -
02/22/2018 08:00 Ice Warning 5.4F - - 32F 60 0% - - 100% 1 mhos 0 - None None - -
02/22/2018 07:55 Ice Warning 5.2F - - 32F 55 0% - - 100% 1 mhos 0 - None None - -
02/22/2018 07:50 Ice Warning 4.5F - - 32F 60 0% - - 100% 1 mhos 0 - None None - -
02/22/2018 07:40 Ice Warning 3.7F - - 32F 65 0% - - 100% 1 mhos 0 - None None - -
02/22/2018 07:40 Ice Warning 3.7F - - 32F 65 0% - - 100% 1 mhos 0 - None None - -
02/22/2018 07:30 Ice Warning 3.0F - - 32F 60 0% - - 100% 1 mhos 0 - None None - -
02/22/2018 07:25 Ice Warning 2.8F - - 32F 60 0% - - 100% 1 mhos 0 - None None - -
02/22/2018 07:19 Ice Warning 2.5F - - 32F 65 0% - - 100% 1 mhos 0 - None None - -
02/22/2018 07:10 Ice Warning 2.1F - - 32F 60 0% - - 100% 1 mhos 0 - None None - -
02/22/2018 07:09 Ice Warning 2.3F - - 32F 65 0% - - 100% 1 mhos 0 - None None - -
02/22/2018 06:59 Ice Warning 2.3F - - 32F 60 0% - - 100% 1 mhos 0 - None None - -
Date/Time
(MST)
Sf
Temp Chem Water Layer Surface Precipitation
Sfc Pvt Sub Frz Factor Pct Dpth DpthThk IcePct Cond Salin FI Type Intens Accum Rate
02/22/2018 06:55 Ice Warning 2.3F - - 32F 60 0% - - 100% 1 mhos 0 - None None - -
02/22/2018 06:49 Ice Warning 2.5F - - 32F 55 0% - - 100% 1 mhos 0 - None None - -
02/22/2018 06:40 Ice Warning 2.7F - - 32F 55 0% - - 100% 1 mhos 0 - None None - -
02/22/2018 06:39 Ice Warning 2.7F - - 32F 55 0% - - 100% 1 mhos 0 - None None - -
02/22/2018 06:29 Ice Warning 2.5F - - 32F 55 0% - - 100% 1 mhos 0 - None None - -
02/22/2018 06:25 Ice Warning 2.1F - - 32F 50 0% - - 100% 1 mhos 0 - None None - -
02/22/2018 06:19 Ice Warning 2.1F - - 32F 55 0% - - 100% 1 mhos 0 - None None - -
02/22/2018 06:10 Ice Warning 1.8F - - 32F 50 0% - - 100% 1 mhos 0 - None None - -
02/22/2018 06:09 Ice Warning 1.8F - - 32F 50 0% - - 100% 1 mhos 0 - None None - -
02/22/2018 05:59 Ice Warning 2.1F - - 32F 50 0% - - 100% 1 mhos 0 - None None - -
02/22/2018 05:55 Ice Warning 2.3F - - 32F 50 0% - - 100% 1 mhos 0 - None None - -
02/22/2018 05:49 Ice Warning 2.5F - - 32F 50 0% - - 100% 1 mhos 0 - None None - -
02/22/2018 05:40 Ice Warning 2.1F - - 32F 50 0% - - 100% 1 mhos 0 - None None - -
02/22/2018 05:39 Ice Warning 1.9F - - 32F 50 0% - - 100% 1 mhos 0 - None None - -
02/22/2018 05:29 Ice Warning 1.6F - - 32F 50 0% - - 100% 1 mhos 0 - None None - -
Date/Time
(MST)
Sf
Temp Chem Water Layer Surface Precipitation
Sfc Pvt Sub Frz Factor Pct Dpth DpthThk IcePct Cond Salin FI Type Intens Accum Rate
02/22/2018 05:25 Ice Warning 1.6F - - 32F 50 0% - - 100% 1 mhos 0 - None None - -
02/22/2018 05:19 Ice Warning 1.4F - - 32F 50 0% - - 100% 1 mhos 0 - None None - -
02/22/2018 05:10 Ice Warning 1.2F - - 32F 50 0% - - 100% 1 mhos 0 - None None - -
02/22/2018 05:09 Ice Warning 1.2F - - 32F 50 0% - - 100% 1 mhos 0 - None None - -
02/22/2018 04:59 Ice Warning 1.2F - - 32F 50 0% - - 100% 1 mhos 0 - None None - -
02/22/2018 04:55 Ice Warning 1.0F - - 32F 50 0% - - 100% 1 mhos 0 - None None - -
02/22/2018 04:49 Ice Warning 0.7F - - 32F 50 0% - - 100% 1 mhos 0 - None None - -
02/22/2018 04:40 Ice Warning 0.7F - - 32F 50 0% - - 100% 1 mhos 0 - None None - -
02/22/2018 04:38 Ice Warning 0.9F - - 32F 50 0% - - 100% 1 mhos 0 - None None - -
02/22/2018 04:28 Ice Warning 1.0F - - 32F 50 0% - - 100% 1 mhos 0 - None None - -
02/22/2018 04:25 Ice Warning 1.0F - - 32F 60 0% - - 100% 1 mhos 0 - None None - -
02/22/2018 04:18 Ice Warning 1.2F - - 32F 60 0% - - 100% 1 mhos 0 - None None - -
02/22/2018 04:10 Ice Warning 1.4F - - 32F 55 0% - - 100% 1 mhos 0 - None None - -
02/22/2018 04:08 Ice Warning 1.4F - - 32F 55 0% - - 100% 1 mhos 0 - None None - -
02/22/2018 03:58 Ice Warning 1.6F - - 32F 50 0% - - 100% 1 mhos 0 - None None - -
Date/Time
(MST)
Sf
Temp Chem Water Layer Surface Precipitation
Sfc Pvt Sub Frz Factor Pct Dpth DpthThk IcePct Cond Salin FI Type Intens Accum Rate
02/22/2018 03:55 Ice Warning 1.8F - - 32F 45 0% - - 100% 1 mhos 0 - None None - -
02/22/2018 03:48 Ice Warning 1.9F - - 32F 45 0% - - 100% 1 mhos 0 - None None - -
02/22/2018 03:40 Ice Warning 1.9F - - 32F 45 0% - - 100% 1 mhos 0 - None None - -
02/22/2018 03:38 Ice Warning 2.3F - - 32F 45 0% - - 100% 1 mhos 0 - None None - -
02/22/2018 03:28 Ice Warning 2.3F - - 32F 30 0% - - 100% 1 mhos 0 - None None - -
02/22/2018 03:25 Ice Warning 2.3F - - 32F 30 0% - - 100% 1 mhos 0 - None None - -
02/22/2018 03:18 Ice Warning 2.5F - - 32F 30 0% - - 100% 1 mhos 0 - None None - -
02/22/2018 03:10 Ice Warning 2.5F - - 32F 30 0% - - 100% 1 mhos 0 - None None - -
02/22/2018 03:08 Ice Warning 2.5F - - 32F 30 0% - - 100% 1 mhos 0 - None None - -
02/22/2018 02:58 Ice Warning 2.8F - - 32F 30 0% - - 100% 1 mhos 0 - None None - -
02/22/2018 02:55 Ice Warning 2.8F - - 32F 30 0% - - 100% 1 mhos 0 - None None - -
02/22/2018 02:48 Ice Warning 3.2F - - 32F 35 0% - - 100% 1 mhos 0 - None None - -
02/22/2018 02:40 Ice Warning 3.4F - - 32F 30 0% - - 100% 1 mhos 0 - None None - -
02/22/2018 02:38 Ice Warning 3.6F - - 32F 30 0% - - 100% 1 mhos 0 - None None - -
02/22/2018 02:28 Ice Warning 3.7F - - 32F 35 0% - - 100% 1 mhos 0 - None None - -
Date/Time
(MST)
Sf
Temp Chem Water Layer Surface Precipitation
Sfc Pvt Sub Frz Factor Pct Dpth DpthThk IcePct Cond Salin FI Type Intens Accum Rate
02/22/2018 02:25 Ice Warning 3.9F - - 32F 35 0% - - 100% 1 mhos 0 - None None - -
02/22/2018 02:18 Ice Warning 4.3F - - 32F 35 0% - - 100% 1 mhos 0 - Yes - - -
02/22/2018 02:10 Ice Warning 4.5F - - 32F 35 0% - - 100% 1 mhos 0 - Yes - - -
02/22/2018 02:08 Ice Warning 4.6F - - 32F 35 0% - - 100% 1 mhos 0 - None None - -
02/22/2018 01:58 Ice Warning 4.5F - - 32F 35 0% - - 100% 1 mhos 0 - Yes - - -
02/22/2018 01:55 Ice Warning 4.5F - - 32F 35 0% - - 100% 1 mhos 0 - Yes - - -
02/22/2018 01:47 Ice Warning 4.5F - - 32F 35 0% - - 100% 1 mhos 0 - None None - -
02/22/2018 01:40 Ice Warning 4.5F - - 32F 35 0% - - 100% 1 mhos 0 - None None - -
02/22/2018 01:37 Ice Warning 4.5F - - 32F 35 0% - - 100% 1 mhos 0 - None None - -
02/22/2018 01:27 Ice Warning 4.6F - - 32F 40 0% - - 100% 1 mhos 0 - None None - -
02/22/2018 01:25 Ice Warning 4.6F - - 32F 35 0% - - 100% 1 mhos 0 - None None - -
02/22/2018 01:17 Ice Warning 4.6F - - 32F 40 0% - - 100% 1 mhos 0 - None None - -
02/22/2018 01:10 Ice Warning 4.8F - - 32F 40 0% - - 100% 1 mhos 0 - None None - -
02/22/2018 01:07 Ice Warning 5.0F - - 32F 40 0% - - 100% 1 mhos 0 - None None - -
02/22/2018 00:57 Ice Warning 5.2F - - 32F 40 0% - - 100% 1 mhos 0 - None None - -
Date/Time
(MST)
Sf
Temp Chem Water Layer Surface Precipitation
Sfc Pvt Sub Frz Factor Pct Dpth DpthThk IcePct Cond Salin FI Type Intens Accum Rate
02/22/2018 00:55 Ice Warning 5.2F - - 32F 40 0% - - 100% 1 mhos 0 - None None - -
02/22/2018 00:47 Ice Warning 5.5F - - 32F 40 0% - - 100% 1 mhos 0 - None None - -
02/22/2018 00:40 Ice Warning 5.5F - - 32F 40 0% - - 100% 1 mhos 0 - None None - -
02/22/2018 00:37 Ice Warning 5.7F - - 32F 40 0% - - 100% 1 mhos 0 - None None - -
02/22/2018 00:27 Ice Warning 6.1F - - 32F 45 0% - - 100% 1 mhos 0 - None None - -
02/22/2018 00:25 Ice Warning 6.1F - - 32F 45 0% - - 100% 1 mhos 0 - None None - -
02/22/2018 00:17 Ice Warning 6.4F - - 32F 45 0% - - 100% 1 mhos 0 - Yes - - -
02/22/2018 00:10 Ice Warning 6.6F - - 32F 45 0% - - 100% 1 mhos 0 - None None - -
02/22/2018 00:07 Ice Warning 6.6F - - 32F 45 0% - - 100% 1 mhos 0 - None None - -
02/21/2018 23:57 Ice Warning 6.8F - - 32F 45 0% - - 100% 1 mhos 0 - None None - -
02/21/2018 23:55 Ice Warning 7.0F - - 32F 45 0% - - 100% 1 mhos 0 - None None - -
02/21/2018 23:47 Ice Warning 7.2F - - 32F 45 0% - - 100% 1 mhos 0 - None None - -
02/21/2018 23:40 Ice Warning 7.2F - - 32F 45 0% - - 100% 1 mhos 0 - None None - -
02/21/2018 23:37 Ice Warning 7.3F - - 32F 45 0% - - 100% 1 mhos 0 - None None - -
02/21/2018 23:27 Ice Warning 7.9F - - 32F 45 0% - - 100% 1 mhos 0 - None None - -
Date/Time
(MST)
Sf
Temp Chem Water Layer Surface Precipitation
Sfc Pvt Sub Frz Factor Pct Dpth DpthThk IcePct Cond Salin FI Type Intens Accum Rate
02/21/2018 23:25 Ice Warning 7.9F - - 32F 45 0% - - 100% 1 mhos 0 - None None - -
02/21/2018 23:17 Ice Warning 8.1F - - 32F 45 0% - - 100% 1 mhos 0 - None None - -
02/21/2018 23:10 Ice Warning 8.4F - - 32F 45 0% - - 100% 1 mhos 0 - None None - -
02/21/2018 23:06 Ice Warning 8.4F - - 32F 45 0% - - 100% 1 mhos 0 - None None - -
02/21/2018 22:56 Ice Warning 9.0F - - 32F 45 0% - - 100% 1 mhos 0 - None None - -
02/21/2018 22:55 Ice Warning 9.0F - - 32F 45 0% - - 100% 1 mhos 0 - None None - -
02/21/2018 22:46 Ice Warning 9.3F - - 32F 50 0% - - 100% 1 mhos 0 - Yes - - -
02/21/2018 22:40 Ice Warning 9.7F - - 32F 50 0% - - 100% 1 mhos 0 - Yes - - -
02/21/2018 22:36 Ice Warning 10.0F - - 32F 50 0% - - 100% 1 mhos 0 - Yes - - -
02/21/2018 22:26 Ice Warning 10.4F - - 32F 50 0% - - 100% 1 mhos 0 - Yes - - -
02/21/2018 22:25 Ice Warning 10.8F - - 32F 50 0% - - 100% 1 mhos 0 - Yes - - -
02/21/2018 22:16 Ice Warning 10.6F - - 32F 45 0% - - 100% 1 mhos 0 - Yes - - -
02/21/2018 22:10 Ice Warning 10.8F - - 32F 45 0% - - 100% 1 mhos 0 - Yes - - -
02/21/2018 22:06 Ice Warning 10.6F - - 32F 45 0% - - 100% 1 mhos 0 - Yes - - -
02/21/2018 21:56 Ice Warning 10.8F - - 32F 45 0% - - 100% 1 mhos 0 - None None - -
Date/Time
(MST)
Sf
Temp Chem Water Layer Surface Precipitation
Sfc Pvt Sub Frz Factor Pct Dpth DpthThk IcePct Cond Salin FI Type Intens Accum Rate
02/21/2018 21:55 Ice Warning 10.9F - - 32F 50 0% - - 100% 1 mhos 0 - None None - -
02/21/2018 21:46 Ice Warning 10.8F - - 32F 40 0% - - 100% 1 mhos 0 - Yes - - -
02/21/2018 21:40 Ice Warning 11.1F - - 32F 40 0% - - 100% 1 mhos 0 - None None - -
02/21/2018 21:36 Ice Warning 11.3F - - 32F 45 0% - - 100% 1 mhos 0 - Yes - - -
02/21/2018 21:26 Ice Warning 11.1F - - 32F 45 0% - - 100% 1 mhos 0 - None None - -
02/21/2018 21:25 Ice Warning 11.1F - - 32F 45 0% - - 100% 1 mhos 0 - None None - -
02/21/2018 21:16 Ice Warning 11.5F - - 32F 45 0% - - 100% 1 mhos 0 - None None - -
02/21/2018 21:10 Ice Warning 11.5F - - 32F 45 0% - - 100% 1 mhos 0 - None None - -
02/21/2018 21:06 Ice Warning 11.3F - - 32F 45 0% - - 100% 1 mhos 0 - None None - -
02/21/2018 20:56 Ice Warning 11.5F - - 32F 45 0% - - 100% 1 mhos 0 - None None - -
02/21/2018 20:55 Ice Warning 11.5F - - 32F 45 0% - - 100% 1 mhos 0 - None None - -
02/21/2018 20:46 Ice Warning 11.7F - - 32F 45 0% - - 100% 1 mhos 0 - None None - -
02/21/2018 20:40 Ice Warning 11.8F - - 32F 50 0% - - 100% 1 mhos 0 - None None - -
02/21/2018 20:36 Ice Warning 11.7F - - 32F 50 0% - - 100% 1 mhos 0 - None None - -
02/21/2018 20:26 Ice Warning 12.0F - - 32F 50 0% - - 100% 1 mhos 0 - None None - -
Date/Time
(MST)
Sf
Temp Chem Water Layer Surface Precipitation
Sfc Pvt Sub Frz Factor Pct Dpth DpthThk IcePct Cond Salin FI Type Intens Accum Rate
02/21/2018 20:25 Ice Warning 12.0F - - 32F 50 0% - - 100% 1 mhos 0 - None None - -
02/21/2018 20:16 Ice Warning 12.4F - - 32F 50 0% - - 100% 1 mhos 0 - None None - -
02/21/2018 20:10 Ice Warning 12.9F - - 32F 50 0% - - 100% 1 mhos 0 - None None - -
02/21/2018 20:06 Ice Warning 13.3F - - 32F 50 0% - - 100% 1 mhos 0 - None None - -
02/21/2018 19:55 Ice Warning 13.6F - - 32F 55 0% - - 100% 1 mhos 0 - None None - -
02/21/2018 19:55 Ice Warning 13.6F - - 32F 55 0% - - 100% 1 mhos 0 - None None - -
02/21/2018 19:45 Ice Warning 14.4F - - 32F 55 0% - - 100% 1 mhos 0 - None None - -
02/21/2018 19:40 Ice Warning 14.9F - - 32F 55 0% - - 100% 1 mhos 0 - None None - -
02/21/2018 19:35 Ice Warning 15.1F - - 32F 60 0% - - 100% 1 mhos 0 - None None - -
02/21/2018 19:25 Ice Warning 15.3F - - 32F 60 0% - - 100% 1 mhos 0 - None None - -
02/21/2018 19:25 Ice Warning 15.3F - - 32F 60 0% - - 100% 1 mhos 0 - None None - -
02/21/2018 19:15 Ice Warning 15.8F - - 32F 65 0% - - 100% 1 mhos 0 - None None - -
02/21/2018 19:10 Ice Warning 16.0F - - 32F 65 0% - - 100% 1 mhos 0 - None None - -
02/21/2018 19:05 Ice Warning 16.2F - - 32F 65 0% - - 100% 1 mhos 0 - None None - -
02/21/2018 18:55 Ice Warning 16.7F - - 32F 65 0% - - 100% 1 mhos 0 - None None - -
Date/Time
(MST)
Sf
Temp Chem Water Layer Surface Precipitation
Sfc Pvt Sub Frz Factor Pct Dpth DpthThk IcePct Cond Salin FI Type Intens Accum Rate
02/21/2018 18:55 Ice Warning 16.7F - - 32F 65 0% - - 100% 1 mhos 0 - None None - -
02/21/2018 18:45 Ice Warning 17.2F - - 32F 60 0% - - 100% 1 mhos 0 - None None - -
02/21/2018 18:40 Ice Warning 17.6F - - 32F 5 0% - - 100% 1 mhos 0 - None None - -
02/21/2018 18:35 Ice Warning 17.6F - - 32F 5 0% - - 100% 1 mhos 0 - None None - -
02/21/2018 18:25 Ice Warning 18.0F - - 32F 5 0% - - 100% 1 mhos 0 - None None - -
02/21/2018 18:25 Ice Warning 18.1F - - 32F 5 0% - - 100% 1 mhos 0 - None None - -
02/21/2018 18:15 Ice Warning 18.5F - - 32F 5 0% - - 100% 1 mhos 0 - None None - -
02/21/2018 18:10 Ice Warning 18.3F - - 32F 5 0% - - 100% 1 mhos 0 - None None - -
02/21/2018 18:05 Ice Warning 18.7F - - 32F 5 0% - - 100% 1 mhos 0 - Yes - - -
02/21/2018 17:55 Ice Warning 19.0F - - 32F 5 0% - - 100% 1 mhos 0 - None None - -
02/21/2018 17:55 Ice Warning 19.0F - - 32F 5 0% - - 100% 1 mhos 0 - None None - -
02/21/2018 17:45 Ice Warning 19.2F - - 32F 5 0% - - 100% 1 mhos 0 - None None - -
02/21/2018 17:40 Ice Warning 19.4F - - 32F 10 0% - - 100% 1 mhos 0 - None None - -
02/21/2018 17:35 Ice Warning 19.8F - - 32F 15 0% - - 100% 1 mhos 0 - None None - -
02/21/2018 17:25 Ice Warning 20.3F - - 32F 5 0% - - 100% 1 mhos 0 - None None - -
Date/Time
(MST)
Sf
Temp Chem Water Layer Surface Precipitation
Sfc Pvt Sub Frz Factor Pct Dpth DpthThk IcePct Cond Salin FI Type Intens Accum Rate
02/21/2018 17:25 Ice Warning 20.3F - - 32F 5 0% - - 100% 1 mhos 0 - None None - -
02/21/2018 17:14 Ice Warning 20.5F - - 32F 5 0% - - 100% 1 mhos 0 - None None - -
02/21/2018 17:10 Ice Warning 20.5F - - 32F 5 0% - - 100% 1 mhos 0 - None None - -
02/21/2018 17:04 Ice Warning 20.7F - - 32F 5 0% - - 100% 1 mhos 0 - None None - -
02/21/2018 16:55 Ice Warning 21.0F - - 32F 10 0% - - 100% 1 mhos 0 - None None - -
02/21/2018 16:54 Ice Warning 21.0F - - 32F 5 0% - - 100% 1 mhos 0 - None None - -
02/21/2018 16:44 Ice Warning 21.6F - - 32F 5 0% - - 100% 1 mhos 0 - None None - -
02/21/2018 16:40 Ice Warning 21.7F - - 32F 15 0% - - 100% 1 mhos 0 - None None - -
02/21/2018 16:34 Ice Warning 22.5F - - 32F 15 0% - - 100% 1 mhos 0 - None None - -
02/21/2018 16:25 Ice Warning 22.5F - - 32F 30 0% - - 100% 1 mhos 0 - None None - -
02/21/2018 16:24 Ice Warning 22.5F - - 32F 35 0% - - 100% 1 mhos 0 - None None - -
02/21/2018 16:14 Ice Warning 23.2F - - 32F 35 0% - - 100% 1 mhos 0 - None None - -
02/21/2018 16:10 Ice Warning 23.4F - - 32F 40 0% - - 100% 1 mhos 0 - None None - -
02/21/2018 16:04 Ice Warning 23.4F - - 32F 50 0% - - 100% 1 mhos 0 - None None - -
02/21/2018 15:55 Ice Warning 23.9F - - 32F 20 0% - - 100% 1 mhos 0 - None None - -
Date/Time
(MST)
Sf
Temp Chem Water Layer Surface Precipitation
Sfc Pvt Sub Frz Factor Pct Dpth DpthThk IcePct Cond Salin FI Type Intens Accum Rate
02/21/2018 15:54 Ice Warning 23.9F - - 32F 20 0% - - 100% 1 mhos 0 - None None - -
02/21/2018 15:44 Ice Warning 24.1F - - 32F 30 0% - - 100% 1 mhos 0 - None None - -
02/21/2018 15:40 Ice Warning 23.9F - - 32F 35 0% - - 100% 1 mhos 0 - Yes - - -
02/21/2018 15:34 Ice Warning 24.3F - - 32F 40 0% - - 100% 1 mhos 0 - None None - -
02/21/2018 15:25 Ice Warning 24.4F - - 32F 35 0% - - 100% 1 mhos 0 - None None - -
02/21/2018 15:24 Ice Warning 24.3F - - 32F 40 0% - - 100% 1 mhos 0 - Yes - - -
02/21/2018 15:14 Ice Warning 24.3F - - 32F 40 0% - - 100% 1 mhos 0 - Yes - - -
02/21/2018 15:10 Ice Warning 24.3F - - 32F 45 0% - - 100% 1 mhos 0 - None None - -
02/21/2018 15:04 Ice Warning 25.3F - - 32F 55 0% - - 100% 1 mhos 0 - None None - -
02/21/2018 14:55 Ice Warning 24.3F - - 32F 50 0% - - 100% 1 mhos 0 - Yes - - -
02/21/2018 14:54 Ice Warning 24.4F - - 32F 55 0% - - 100% 1 mhos 0 - None None - -
02/21/2018 14:44 Ice Warning 24.3F - - 32F 60 0% - - 100% 1 mhos 0 - None None - -
02/21/2018 14:40 Ice Warning 23.5F - - 32F 60 0% - - 100% 1 mhos 0 - None None - -
02/21/2018 14:33 Ice Warning 23.7F - - 32F 55 0% - - 100% 1 mhos 0 - Yes - - -
02/21/2018 14:25 Ice Warning 23.5F - - 32F 55 0% - - 100% 1 mhos 0 - None None - -
Date/Time
(MST)
Sf
Temp Chem Water Layer Surface Precipitation
Sfc Pvt Sub Frz Factor Pct Dpth DpthThk IcePct Cond Salin FI Type Intens Accum Rate
02/21/2018 14:23 Ice Warning 23.5F - - 32F 55 0% - - 100% 1 mhos 0 - None None - -
02/21/2018 14:13 Ice Warning 23.9F - - 32F 55 0% - - 100% 1 mhos 0 - None None - -
02/21/2018 14:10 Ice Warning 23.9F - - 32F 55 0% - - 100% 1 mhos 0 - None None - -
02/21/2018 14:03 Ice Warning 23.2F - - 32F 50 0% - - 100% 1 mhos 0 - None None - -
02/21/2018 13:55 Ice Warning 23.2F - - 32F 50 0% - - 100% 1 mhos 0 - None None - -
02/21/2018 13:53 Ice Warning 23.0F - - 32F 45 0% - - 100% 1 mhos 0 - None None - -
02/21/2018 13:43 Ice Warning 22.8F - - 32F 55 0% - - 100% 1 mhos 0 - Yes - - -
02/21/2018 13:40 Ice Warning 22.6F - - 32F 55 0% - - 100% 1 mhos 0 - Yes - - -
02/21/2018 13:33 Ice Warning 22.6F - - 32F 55 0% - - 100% 1 mhos 0 - Yes - - -
02/21/2018 13:25 Ice Warning 22.5F - - 32F 50 0% - - 100% 1 mhos 0 - None None - -
02/21/2018 13:23 Ice Warning 23.0F - - 32F 50 0% - - 100% 1 mhos 0 - None None - -
Change End Date:

Copyright © 1998-2015 Vaisala, Inc.
All Rights Reserved
Send comments about the data to:
SCAN Web ® is a registered trademark of Vaisala, Inc.
SCAN Web Version 6.0